This is the latest recevied weather packets stored in our database for station/object KD2SIG. If no packets are shown the sender has not sent any weather packets the latest 10 day(s).
| Time | Temp. | Humidity | Pressure | Rain* | Wind** | Luminosity | Snow |
|---|---|---|---|---|---|---|---|
| 1778016458 | 16.11° C | 71% | 1006 hPa | 0 mm | - | 71 W/m² | - |
| 1778016156 | 16.67° C | 71% | 1005.9 hPa | 0 mm | - | 92 W/m² | - |
| 1778015852 | 17.22° C | 70% | 1005.8 hPa | 0 mm | - | 146 W/m² | - |
| 1778015550 | 17.22° C | 70% | 1005.5 hPa | 0 mm | - | 250 W/m² | - |
| 1778015246 | 17.22° C | 72% | 1005.3 hPa | 0 mm | - | 223 W/m² | - |
| 1778014943 | 16.67° C | 75% | 1005.4 hPa | 0 mm | - | 375 W/m² | - |
| 1778014641 | 16.67° C | 76% | 1005.5 hPa | 0 mm | - | 317 W/m² | - |
| 1778014339 | 17.22° C | 75% | 1005.3 hPa | 0 mm | - | 211 W/m² | - |
| 1778014034 | 17.22° C | 75% | 1005.2 hPa | 0 mm | - | 200 W/m² | - |
| 1778013733 | 17.78° C | 74% | 1005.1 hPa | 0 mm | - | 190 W/m² | - |
| 1778013430 | 17.78° C | 74% | 1004.7 hPa | 0 mm | - | 226 W/m² | - |
| 1778013127 | 18.33° C | 74% | 1004.6 hPa | 0 mm | - | 208 W/m² | - |
| 1778012822 | 17.78° C | 73% | 1005 hPa | 0 mm | - | 245 W/m² | - |
| 1778012518 | 17.78° C | 74% | 1005 hPa | 0 mm | - | 287 W/m² | - |
| 1778012215 | 17.78° C | 74% | 1004.6 hPa | 0 mm | - | 267 W/m² | - |
| 1778011913 | 18.33° C | 73% | 1004.8 hPa | 0 mm | - | 257 W/m² | - |
| 1778011611 | 18.33° C | 73% | 1004.7 hPa | 0 mm | - | 293 W/m² | - |
| 1778011307 | 18.33° C | 73% | 1004.9 hPa | 0 mm | - | 349 W/m² | - |
| 1778011003 | 18.33° C | 73% | 1005 hPa | 0 mm | - | 342 W/m² | - |
| 1778010701 | 18.33° C | 73% | 1004.9 hPa | 0 mm | - | 317 W/m² | - |
| 1778010398 | 18.33° C | 73% | 1004.8 hPa | 0 mm | - | 245 W/m² | - |
| 1778010094 | 18.89° C | 73% | 1005.1 hPa | 0 mm | - | 418 W/m² | - |
| 1778009791 | 18.89° C | 73% | 1005 hPa | 0 mm | - | 438 W/m² | - |
| 1778009488 | 18.89° C | 72% | 1005.1 hPa | 0 mm | - | 514 W/m² | - |
| 1778009186 | 18.89° C | 73% | 1004.9 hPa | 0 mm | - | 367 W/m² | - |
* Rain latest hour (hover to see other rain measurements)
** Current wind speed in m/s (hover to see current wind gust speed)